Newark Heath, OH

10:44 PM EDT on June 27, 2017 (GMT -0400)
Newark Heath

Weather History for KVTA - October, 2012

Change the Weather History Date:

Wednesday, October 24, 2012

  Actual Average Record
Temperature  
Mean Temperature 66 °F -  
Max Temperature 79 °F 62 °F 82 °F (1963)
Min Temperature 54 °F 39 °F 20 °F (1964)
Cooling Degree Days 2    
Growing Degree Days 16 (Base 50)    
Moisture  
Dew Point 54 °F    
Average Humidity 69    
Maximum Humidity 90    
Minimum Humidity 42    
Precipitation  
Precipitation 0.05 in - - ()
Sea Level Pressure  
Sea Level Pressure 30.08 in    
Wind  
Wind Speed 4 mph (SSW)    
Max Wind Speed 10 mph    
Max Gust Speed 24 mph    
Visibility 9 miles    
Events Rain    
Averages and records for this station are not official NWS values.
T = Trace of Precipitation, MM = Missing Value Source: NWS Daily Summary

Daily Weather History Graph

Daily Weather History Graph

Search for Another Location

Airport or City:

Trip Planner

Search our weather history database for the weather conditions in past years. The results will help you decide how hot, cold, wet, or windy it might be!

Date:

Astronomy

Oct. 24, 2012 Rise Set
Actual Time 7:50 AM EDT 6:36 PM EDT
Civil Twilight 7:22 AM EDT 7:04 PM EDT
Nautical Twilight 6:51 AM EDT 7:36 PM EDT
Astronomical Twilight 6:19 AM EDT 8:07 PM EDT
Moon 3:52 PM EDT (10/24) 2:44 AM EDT (10/24)
Length of Visible Light 11h 41m
Length of Day
10h 46m
Waxing Gibbous, 76% of the Moon is Illuminated
Oct 24
Waxing Gibbous
Oct 29
Full
Nov 6
Last Quarter
Nov 13
New
Nov 20
First Quarter

Hourly Weather History & Observations

Time (EDT) Temp. Dew Point Humidity Pressure Visibility Wind Dir Wind Speed Gust Speed Precip Events Conditions
12:54 AM 57.9 °F 53.1 °F 84% 30.06 in 10.0 mi Calm Calm - N/A   Overcast
2:54 AM 64.0 °F 52.0 °F 65% 30.07 in 10.0 mi WSW 3.5 mph - 0.00 in   Overcast
3:54 AM 62.1 °F 55.9 °F 80% 30.10 in 5.0 mi West 10.4 mph 24.2 mph 0.02 in Rain Rain
4:54 AM 60.1 °F 57.0 °F 90% 30.09 in 10.0 mi Calm Calm - 0.03 in   Overcast
5:54 AM 60.1 °F 55.9 °F 86% 30.09 in 10.0 mi Calm Calm - N/A   Overcast
6:54 AM 57.0 °F 54.0 °F 89% 30.10 in 8.0 mi Calm Calm - N/A   Mostly Cloudy
7:54 AM 57.9 °F 55.0 °F 90% 30.11 in 10.0 mi Calm Calm - N/A   Overcast
8:54 AM 60.1 °F 55.0 °F 83% 30.12 in 10.0 mi SSW 3.5 mph - N/A   Scattered Clouds
9:54 AM 64.0 °F 55.9 °F 75% 30.13 in 10.0 mi SSW 3.5 mph - N/A   Mostly Cloudy
10:54 AM 69.1 °F 55.0 °F 61% 30.13 in 10.0 mi SSW 8.1 mph - N/A   Mostly Cloudy
11:54 AM 72.0 °F 55.9 °F 57% 30.11 in 10.0 mi South 9.2 mph - N/A   Clear
12:54 PM 75.0 °F 55.0 °F 50% 30.08 in 10.0 mi SSW 10.4 mph - N/A   Clear
1:54 PM 75.9 °F 55.9 °F 50% 30.06 in 10.0 mi SSW 9.2 mph - N/A   Clear
2:54 PM 77.0 °F 55.0 °F 47% 30.04 in 10.0 mi SSW 10.4 mph - N/A   Clear
3:54 PM 78.1 °F 55.0 °F 45% 30.04 in 10.0 mi SW 6.9 mph - N/A   Clear
4:54 PM 78.1 °F 54.0 °F 43% 30.03 in 10.0 mi SW 8.1 mph - N/A   Clear
5:54 PM 77.0 °F 52.0 °F 42% 30.04 in 10.0 mi SSW 5.8 mph - N/A   Clear
6:54 PM 73.0 °F 52.0 °F 48% 30.04 in 10.0 mi SSE 3.5 mph - N/A   Clear
7:54 PM 62.1 °F 54.0 °F 75% 30.05 in 7.0 mi SW 3.5 mph - N/A   Clear
8:54 PM 59.0 °F 52.0 °F 78% 30.06 in 7.0 mi Calm Calm - N/A   Clear
9:54 PM 57.0 °F 51.1 °F 81% 30.06 in 10.0 mi Calm Calm - N/A   Clear
10:54 PM 55.9 °F 51.1 °F 84% 30.07 in 10.0 mi Calm Calm - N/A   Clear
11:54 PM 54.0 °F 50.0 °F 86% 30.07 in 10.0 mi Calm Calm - N/A   Clear